Voltar ao catálogo

NINGXIA-1 1

AtivoCiênciaLEO
NORAD 44779·PAYLOAD·🇨🇳 China

Lançado Nov 13, 2019 de Taiyuan Satellite Launch Center

Loading…

Próximas Passagens (próximas 24 horas)

TLE

AtualizadoSource: Space-Track

Época: Sep 14, 2026, 16:17 UTC

1 44779U 19076A   26257.67860544 -.00000010  00000-0  77460-4 0  9996
2 44779  45.0049 139.9017 0011166 221.8561 138.1420 14.02114503350418

Acompanhe NINGXIA-1 1 em tempo real com AllMySat

Download on the App Store